�������l�o���
Date,Time,MP-1(��Sv/h),MP-2(��Sv/h),MP-3(��Sv/h),MP-4(��Sv/h),MP-5(��Sv/h),MP-6(��Sv/h),MP-7(��Sv/h),����,����(m/s),���J
2020/01/07,00:00,0.184,0.164,0.281,0.261,0.254,0.143,0.087,�k��,5.0,��
2020/01/07,00:10,0.184,0.165,0.280,0.260,0.255,0.141,0.087,�k��,4.6,��
2020/01/07,00:20,0.184,0.165,0.281,0.261,0.254,0.142,0.087,�k�k��,3.6,��
2020/01/07,00:30,0.184,0.165,0.281,0.260,0.255,0.142,0.086,�k�k��,3.9,��
2020/01/07,00:40,0.183,0.165,0.281,0.260,0.255,0.142,0.087,�k��,4.9,��
2020/01/07,00:50,0.183,0.165,0.281,0.261,0.256,0.142,0.087,�k��,4.9,��
2020/01/07,01:00,0.184,0.165,0.280,0.260,0.256,0.142,0.087,�k�k��,4.6,��
2020/01/07,01:10,0.184,0.164,0.281,0.261,0.254,0.141,0.086,�k�k��,5.0,��
2020/01/07,01:20,0.184,0.164,0.282,0.261,0.254,0.141,0.087,�k��,5.2,��
2020/01/07,01:30,0.185,0.165,0.279,0.260,0.255,0.141,0.088,�k��,4.4,��
2020/01/07,01:40,0.184,0.165,0.280,0.262,0.255,0.142,0.087,�k�k��,5.2,��
2020/01/07,01:50,0.185,0.165,0.280,0.261,0.256,0.141,0.087,�k�k��,4.7,��
2020/01/07,02:00,0.184,0.164,0.281,0.260,0.256,0.142,0.087,�k��,6.6,��
2020/01/07,02:10,0.185,0.166,0.280,0.260,0.255,0.141,0.087,�k�k��,6.5,��
2020/01/07,02:20,0.184,0.165,0.280,0.261,0.255,0.142,0.087,�k�k��,5.8,��
2020/01/07,02:30,0.184,0.164,0.280,0.261,0.254,0.143,0.087,�k�k��,6.4,��
2020/01/07,02:40,0.185,0.165,0.281,0.261,0.255,0.142,0.087,�k�k��,7.0,��
2020/01/07,02:50,0.184,0.166,0.280,0.260,0.256,0.141,0.087,�k�k��,6.6,��
2020/01/07,03:00,0.185,0.164,0.280,0.261,0.255,0.141,0.087,�k�k��,7.3,��
2020/01/07,03:10,0.184,0.165,0.281,0.260,0.255,0.141,0.087,�k�k��,6.6,��
2020/01/07,03:20,0.184,0.164,0.281,0.260,0.255,0.142,0.087,�k��,7.3,��
2020/01/07,03:30,0.184,0.166,0.281,0.261,0.256,0.142,0.087,�k�k��,5.9,��
2020/01/07,03:40,0.184,0.165,0.281,0.262,0.255,0.142,0.087,�k�k��,7.0,��
2020/01/07,03:50,0.184,0.166,0.281,0.260,0.257,0.141,0.087,�k�k��,7.0,��
2020/01/07,04:00,0.184,0.165,0.281,0.261,0.255,0.141,0.087,�k�k��,6.5,��
2020/01/07,04:10,0.185,0.166,0.281,0.260,0.255,0.142,0.087,�k�k��,5.9,��
2020/01/07,04:20,0.183,0.165,0.281,0.261,0.255,0.142,0.087,�k�k��,5.3,��
2020/01/07,04:30,0.184,0.165,0.281,0.260,0.255,0.142,0.088,�k�k��,4.6,��
2020/01/07,04:40,0.184,0.165,0.281,0.261,0.255,0.142,0.088,�k�k��,4.9,��
2020/01/07,04:50,0.184,0.165,0.281,0.261,0.255,0.142,0.088,�k,5.2,��
2020/01/07,05:00,0.184,0.165,0.280,0.261,0.256,0.142,0.088,�k,5.2,��
2020/01/07,05:10,0.184,0.166,0.281,0.260,0.257,0.143,0.088,�k�k��,5.4,��
2020/01/07,05:20,0.185,0.165,0.280,0.261,0.255,0.142,0.087,�k,5.3,��
2020/01/07,05:30,0.184,0.164,0.281,0.261,0.255,0.142,0.087,�k�k��,5.1,��
2020/01/07,05:40,0.185,0.164,0.282,0.261,0.254,0.143,0.087,�k�k��,5.1,��
2020/01/07,05:50,0.185,0.165,0.281,0.261,0.255,0.142,0.088,�k�k��,5.8,��
2020/01/07,06:00,0.185,0.166,0.282,0.261,0.256,0.142,0.087,�k�k��,5.7,��
2020/01/07,06:10,0.185,0.164,0.281,0.261,0.255,0.142,0.088,�k�k��,5.3,��
2020/01/07,06:20,0.184,0.165,0.281,0.261,0.255,0.142,0.087,�k�k��,5.0,��
2020/01/07,06:30,0.184,0.164,0.282,0.261,0.254,0.142,0.087,�k�k��,5.0,��
2020/01/07,06:40,0.185,0.164,0.282,0.260,0.255,0.142,0.087,�k�k��,5.2,��
2020/01/07,06:50,0.184,0.165,0.281,0.260,0.255,0.142,0.088,�k�k��,5.5,��
2020/01/07,07:00,0.185,0.165,0.280,0.262,0.256,0.141,0.088,�k�k��,5.4,��
2020/01/07,07:10,0.184,0.164,0.280,0.261,0.255,0.142,0.088,�k�k��,5.6,��
2020/01/07,07:20,0.184,0.165,0.282,0.261,0.254,0.142,0.088,�k�k��,5.6,��
2020/01/07,07:30,0.184,0.165,0.282,0.261,0.255,0.143,0.087,�k�k��,5.6,��
2020/01/07,07:40,0.184,0.165,0.281,0.259,0.256,0.142,0.088,�k�k��,5.9,��
2020/01/07,07:50,0.185,0.164,0.281,0.261,0.254,0.142,0.088,�k�k��,6.0,��
2020/01/07,08:00,0.184,0.166,0.280,0.261,0.255,0.142,0.087,�k�k��,6.3,��
2020/01/07,08:10,0.184,0.166,0.281,0.260,0.254,0.142,0.087,�k�k��,6.5,��
2020/01/07,08:20,0.184,0.165,0.281,0.259,0.255,0.141,0.087,�k�k��,6.3,��
2020/01/07,08:30,0.185,0.165,0.280,0.260,0.254,0.142,0.087,�k�k��,5.9,��
2020/01/07,08:40,0.185,0.165,0.281,0.261,0.255,0.142,0.087,�k�k��,5.9,��
2020/01/07,08:50,0.185,0.166,0.281,0.260,0.255,0.142,0.088,�k�k��,4.8,��
2020/01/07,09:00,0.184,0.166,0.281,0.259,0.256,0.141,0.088,�k�k��,4.4,��
2020/01/07,09:10,0.185,0.164,0.281,0.260,0.255,0.142,0.087,�k�k��,5.1,��
2020/01/07,09:20,0.186,0.165,0.281,0.259,0.254,0.141,0.087,�k,5.1,��
2020/01/07,09:30,0.184,0.165,0.280,0.259,0.255,0.141,0.088,�k�k��,4.7,��
2020/01/07,09:40,0.184,0.164,0.281,0.258,0.256,0.142,0.088,�k�k��,3.8,��
2020/01/07,09:50,0.185,0.164,0.281,0.259,0.255,0.142,0.087,�k�k��,3.5,��
2020/01/07,10:00,0.185,0.166,0.281,0.260,0.255,0.142,0.088,�k�k��,3.9,��
2020/01/07,10:10,0.184,0.165,0.281,0.260,0.255,0.142,0.088,�k�k��,2.7,��
2020/01/07,10:20,0.184,0.164,0.281,0.260,0.255,0.142,0.088,�k�k��,4.4,��
2020/01/07,10:30,0.185,0.166,0.281,0.260,0.254,0.141,0.087,�k,2.6,��
2020/01/07,10:40,0.184,0.165,0.281,0.260,0.256,0.142,0.087,�k�k��,3.8,��
2020/01/07,10:50,0.185,0.165,0.280,0.261,0.255,0.142,0.087,�k,3.8,��
2020/01/07,11:00,0.184,0.164,0.279,0.261,0.256,0.142,0.088,�k�k��,3.4,��
2020/01/07,11:10,0.184,0.165,0.280,0.261,0.256,0.142,0.087,�k,3.5,��
2020/01/07,11:20,0.184,0.166,0.280,0.261,0.254,0.142,0.088,�k�k��,3.7,��
2020/01/07,11:30,0.184,0.166,0.281,0.261,0.255,0.142,0.087,�k,3.1,��
2020/01/07,11:40,0.185,0.165,0.281,0.260,0.255,0.142,0.087,�k,3.6,��
2020/01/07,11:50,0.184,0.165,0.280,0.261,0.254,0.142,0.087,�k,3.7,��
2020/01/07,12:00,0.184,0.165,0.279,0.261,0.257,0.142,0.088,�k�k��,2.8,��
2020/01/07,12:10,0.184,0.165,0.281,0.259,0.254,0.142,0.088,�k�k��,2.3,��
2020/01/07,12:20,0.184,0.165,0.279,0.260,0.255,0.143,0.087,�k�k��,2.9,��
2020/01/07,12:30,0.184,0.165,0.279,0.260,0.256,0.142,0.086,�k�k��,1.9,��
2020/01/07,12:40,0.185,0.165,0.281,0.260,0.255,0.143,0.087,�k�k��,2.0,��
2020/01/07,12:50,0.184,0.165,0.279,0.259,0.255,0.142,0.087,�k��,2.1,��
2020/01/07,13:00,0.184,0.165,0.280,0.261,0.256,0.142,0.087,�k�k��,1.8,��
2020/01/07,13:10,0.184,0.165,0.280,0.262,0.255,0.142,0.087,�k�k��,2.1,��
2020/01/07,13:20,0.184,0.165,0.280,0.260,0.256,0.141,0.087,���k��,2.1,��
2020/01/07,13:30,0.185,0.165,0.280,0.261,0.256,0.142,0.087,�k��,2.1,��
2020/01/07,13:40,0.184,0.165,0.282,0.261,0.254,0.142,0.087,�k��,1.8,��
2020/01/07,13:50,0.184,0.164,0.280,0.261,0.256,0.141,0.087,�k��,1.9,��
2020/01/07,14:00,0.185,0.164,0.280,0.260,0.254,0.142,0.088,�k��,1.9,��
2020/01/07,14:10,0.184,0.165,0.279,0.261,0.255,0.143,0.088,�k��,1.2,��
2020/01/07,14:20,0.185,0.166,0.280,0.261,0.256,0.142,0.088,���k��,2.0,��
2020/01/07,14:30,0.183,0.165,0.279,0.261,0.255,0.141,0.088,���k��,1.1,��
2020/01/07,14:40,0.184,0.166,0.281,0.260,0.255,0.142,0.087,�k��,1.0,��
2020/01/07,14:50,0.183,0.164,0.279,0.261,0.256,0.142,0.087,-,CALM,��
2020/01/07,15:00,0.184,0.165,0.280,0.260,0.253,0.142,0.087,��쐼,0.8,��
2020/01/07,15:10,0.184,0.165,0.279,0.261,0.255,0.141,0.086,-,CALM,��
2020/01/07,15:20,0.184,0.166,0.280,0.261,0.255,0.142,0.086,-,CALM,��
2020/01/07,15:30,0.184,0.165,0.281,0.260,0.255,0.142,0.088,��쐼,1.0,��
2020/01/07,15:40,0.185,0.165,0.279,0.260,0.255,0.142,0.087,��쐼,1.0,��
2020/01/07,15:50,0.185,0.165,0.281,0.262,0.255,0.142,0.086,�쐼,0.9,��
2020/01/07,16:00,0.184,0.165,0.280,0.260,0.255,0.142,0.087,��쐼,0.9,��
2020/01/07,16:10,0.184,0.165,0.279,0.261,0.255,0.142,0.087,��쐼,1.3,��
2020/01/07,16:20,0.183,0.165,0.280,0.262,0.256,0.141,0.088,�쐼,1.3,��
2020/01/07,16:30,0.184,0.165,0.280,0.261,0.255,0.142,0.087,�쐼,1.7,��
2020/01/07,16:40,0.185,0.164,0.280,0.260,0.256,0.141,0.088,�쐼,1.0,��
2020/01/07,16:50,0.183,0.166,0.280,0.260,0.256,0.141,0.087,��쐼,1.3,��
2020/01/07,17:00,0.184,0.164,0.280,0.260,0.254,0.141,0.087,��쐼,1.2,��
2020/01/07,17:10,0.184,0.163,0.280,0.260,0.255,0.143,0.088,��쐼,1.5,�L
2020/01/07,17:20,0.184,0.165,0.280,0.260,0.257,0.143,0.088,��쐼,1.9,�L
2020/01/07,17:30,0.184,0.165,0.281,0.263,0.258,0.143,0.089,��쐼,2.5,�L
2020/01/07,17:40,0.185,0.167,0.283,0.264,0.257,0.145,0.090,��쐼,3.6,�L
2020/01/07,17:50,0.187,0.168,0.283,0.264,0.259,0.146,0.091,��쐼,3.4,�L
2020/01/07,18:00,0.188,0.169,0.284,0.265,0.258,0.147,0.091,��쐼,2.3,�L
2020/01/07,18:10,0.187,0.169,0.285,0.265,0.259,0.146,0.092,�쐼,3.4,�L
2020/01/07,18:20,0.188,0.169,0.285,0.265,0.258,0.147,0.091,�쐼,4.5,�L
2020/01/07,18:30,0.189,0.170,0.285,0.265,0.258,0.147,0.093,�쐼,4.4,�L
2020/01/07,18:40,0.189,0.170,0.285,0.265,0.260,0.148,0.093,�쐼,3.8,�L
2020/01/07,18:50,0.188,0.169,0.284,0.264,0.259,0.148,0.093,�쐼,4.4,�L
2020/01/07,19:00,0.188,0.170,0.285,0.265,0.259,0.148,0.094,��쐼,3.4,�L
2020/01/07,19:10,0.189,0.169,0.284,0.266,0.258,0.149,0.094,�쐼,3.7,�L
2020/01/07,19:20,0.189,0.170,0.284,0.264,0.257,0.149,0.094,�쐼,3.3,�L
2020/01/07,19:30,0.188,0.170,0.284,0.264,0.258,0.148,0.093,�쐼,3.4,�L
2020/01/07,19:40,0.189,0.170,0.284,0.265,0.258,0.149,0.094,��쐼,4.0,�L
2020/01/07,19:50,0.189,0.170,0.284,0.263,0.259,0.147,0.094,�쐼,3.6,�L
2020/01/07,20:00,0.188,0.170,0.283,0.263,0.258,0.148,0.093,�쐼,3.9,�L
2020/01/07,20:10,0.189,0.171,0.284,0.264,0.259,0.150,0.095,��쐼,3.8,�L
2020/01/07,20:20,0.191,0.173,0.285,0.267,0.261,0.151,0.096,��쐼,3.7,�L
2020/01/07,20:30,0.191,0.172,0.285,0.266,0.261,0.152,0.096,��쐼,3.6,�L
2020/01/07,20:40,0.191,0.173,0.285,0.265,0.260,0.151,0.096,��쐼,3.8,�L
2020/01/07,20:50,0.191,0.173,0.284,0.265,0.260,0.151,0.096,��쐼,3.5,�L
2020/01/07,21:00,0.192,0.171,0.284,0.265,0.261,0.150,0.096,��쐼,3.8,�L
2020/01/07,21:10,0.189,0.172,0.282,0.264,0.260,0.149,0.095,�쐼,4.1,�L
2020/01/07,21:20,0.189,0.171,0.281,0.264,0.258,0.148,0.094,�쐼,3.7,�L
2020/01/07,21:30,0.188,0.169,0.281,0.263,0.258,0.147,0.094,�쐼,3.8,�L
2020/01/07,21:40,0.188,0.169,0.280,0.262,0.257,0.147,0.093,�쐼,4.1,�L
2020/01/07,21:50,0.189,0.169,0.281,0.263,0.256,0.147,0.094,�쐼,3.3,�L
2020/01/07,22:00,0.188,0.171,0.281,0.262,0.258,0.148,0.094,�쐼,3.2,�L
2020/01/07,22:10,0.190,0.171,0.281,0.263,0.258,0.149,0.096,�쐼,3.4,�L
2020/01/07,22:20,0.190,0.174,0.281,0.264,0.260,0.151,0.097,��쐼,2.6,�L
2020/01/07,22:30,0.191,0.174,0.283,0.264,0.261,0.152,0.098,�쐼,2.7,�L
2020/01/07,22:40,0.192,0.174,0.282,0.265,0.260,0.152,0.099,�쐼,2.5,�L
2020/01/07,22:50,0.191,0.173,0.282,0.265,0.260,0.152,0.099,�쐼,2.1,�L
2020/01/07,23:00,0.191,0.173,0.282,0.265,0.261,0.152,0.099,�쐼,2.3,�L
2020/01/07,23:10,0.191,0.172,0.281,0.264,0.260,0.151,0.098,�쐼,2.0,�L
2020/01/07,23:20,0.190,0.171,0.281,0.263,0.260,0.151,0.098,��쐼,1.8,�L
2020/01/07,23:30,0.189,0.172,0.280,0.262,0.259,0.151,0.097,�쐼,1.7,�L
2020/01/07,23:40,0.189,0.170,0.279,0.261,0.259,0.150,0.097,�쐼,1.4,�L
2020/01/07,23:50,0.189,0.170,0.279,0.261,0.258,0.150,0.096,���쐼,1.6,�L
